Windsor Locks, CT

10:55 PM EDT on April 24, 2017 (GMT -0400)
Bradley International

Weather History for KBDL - August, 2013

Change the Weather History Date:

Wednesday, August 7, 2013

  Actual Average Record
Temperature  
Mean Temperature 68 °F 73 °F  
Max Temperature 80 °F 84 °F 100 °F (1918)
Min Temperature 56 °F 62 °F 48 °F (1957)
Degree Days  
Heating Degree Days 0 0  
Month to date heating degree days 0 0  
Since 1 June heating degree days 35 43  
Since 1 July heating degree days 2 3  
Cooling Degree Days 3 8  
Month to date cooling degree days 28 59  
Year to date cooling degree days 670 511  
Since 1 June cooling degree days 616 472  
Growing Degree Days 18 (Base 50)    
Moisture  
Dew Point 58 °F    
Average Humidity 66    
Maximum Humidity 93    
Minimum Humidity 39    
Precipitation  
Precipitation T in 0.15 in 2.15 in (2008)
Month to date precipitation 1.25 1.04  
Year to date precipitation 32.37 27.38  
Snow  
Snow 0.00 in 0.00 in 0.00 in (2002)
Month to date snowfall 0.0 0.0  
Since 1 June snowfall 0.0 0.0  
Since 1 July snowfall 0.0 0.0  
Snow Depth 0.00 in    
Sea Level Pressure  
Sea Level Pressure 30.13 in    
Wind  
Wind Speed 7 mph (SSE)    
Max Wind Speed 17 mph    
Max Gust Speed 23 mph    
Visibility 10 miles    
Events      
T = Trace of Precipitation, MM = Missing Value Source: NWS Daily Summary

Daily Weather History Graph

Daily Weather History Graph

Search for Another Location

Airport or City:

Trip Planner

Search our weather history database for the weather conditions in past years. The results will help you decide how hot, cold, wet, or windy it might be!

Date:

Astronomy

Aug. 07, 2013 Rise Set
Actual Time 5:50 AM EDT 8:01 PM EDT
Civil Twilight 5:19 AM EDT 8:32 PM EDT
Nautical Twilight 4:41 AM EDT 9:10 PM EDT
Astronomical Twilight 3:59 AM EDT 9:51 PM EDT
Moon 6:38 AM EDT (8/7) 8:04 PM EDT (8/7)
Length of Visible Light 15h 12m
Length of Day
14h 10m
New Moon, 1% of the Moon is Illuminated
Aug 7
New Moon
Aug 14
First Quarter
Aug 20
Full
Aug 28
Last Quarter
Sep 5
New

Hourly Weather History & Observations

Time (EDT) Temp. Dew Point Humidity Pressure Visibility Wind Dir Wind Speed Gust Speed Precip Events Conditions
12:51 AM 63.0 °F 57.9 °F 84% 30.14 in 10.0 mi Calm Calm - N/A   Clear
1:51 AM 60.1 °F 57.0 °F 90% 30.14 in 10.0 mi Calm Calm - N/A   Partly Cloudy
2:51 AM 59.0 °F 55.9 °F 90% 30.16 in 10.0 mi Calm Calm - N/A   Scattered Clouds
3:51 AM 55.9 °F 54.0 °F 93% 30.16 in 10.0 mi Calm Calm - N/A   Clear
4:51 AM 57.0 °F 55.9 °F 96% 30.15 in 10.0 mi Calm Calm - N/A   Scattered Clouds
5:51 AM 55.9 °F 54.0 °F 93% 30.16 in 10.0 mi Calm Calm - N/A   Mostly Cloudy
6:51 AM 59.0 °F 57.0 °F 93% 30.17 in 10.0 mi WNW 3.5 mph - N/A   Mostly Cloudy
7:51 AM 63.0 °F 59.0 °F 87% 30.17 in 10.0 mi Calm Calm - N/A   Mostly Cloudy
8:51 AM 66.0 °F 60.1 °F 81% 30.16 in 10.0 mi Calm Calm - N/A   Mostly Cloudy
9:51 AM 70.0 °F 60.1 °F 71% 30.16 in 10.0 mi South 4.6 mph - N/A   Mostly Cloudy
10:51 AM 75.9 °F 55.0 °F 48% 30.15 in 10.0 mi SSE 10.4 mph - N/A   Mostly Cloudy
11:51 AM 77.0 °F 55.0 °F 47% 30.14 in 10.0 mi South 9.2 mph 17.3 mph N/A   Mostly Cloudy
12:51 PM 79.0 °F 52.0 °F 39% 30.15 in 10.0 mi South 11.5 mph - N/A   Mostly Cloudy
1:51 PM 77.0 °F 55.0 °F 47% 30.14 in 10.0 mi South 12.7 mph 19.6 mph N/A   Mostly Cloudy
2:51 PM 79.0 °F 55.0 °F 44% 30.13 in 10.0 mi South 10.4 mph - N/A   Mostly Cloudy
3:51 PM 78.1 °F 55.9 °F 46% 30.12 in 10.0 mi South 12.7 mph - N/A   Mostly Cloudy
4:51 PM 77.0 °F 55.0 °F 47% 30.12 in 10.0 mi South 13.8 mph - N/A   Mostly Cloudy
5:51 PM 75.0 °F 57.9 °F 55% 30.10 in 10.0 mi SSE 10.4 mph - N/A   Mostly Cloudy
6:51 PM 73.9 °F 60.1 °F 62% 30.10 in 10.0 mi SSE 11.5 mph 21.9 mph N/A   Mostly Cloudy
7:51 PM 71.1 °F 61.0 °F 70% 30.10 in 10.0 mi SSE 16.1 mph - N/A   Mostly Cloudy
8:51 PM 71.1 °F 61.0 °F 70% 30.09 in 10.0 mi SSE 12.7 mph - N/A   Overcast
9:37 PM 69.8 °F 62.6 °F 78% 30.11 in 10.0 mi SSE 12.7 mph - N/A   Mostly Cloudy
9:51 PM 69.1 °F 62.1 °F 78% 30.11 in 10.0 mi SSE 9.2 mph - N/A   Overcast
10:13 PM 69.8 °F 62.6 °F 78% 30.11 in 10.0 mi SSE 10.4 mph - N/A   Overcast
10:51 PM 69.1 °F 62.1 °F 78% 30.11 in 10.0 mi SSE 9.2 mph - N/A   Overcast
11:51 PM 69.1 °F 62.1 °F 78% 30.09 in 10.0 mi SSE 8.1 mph - N/A   Overcast